Weather History for Valdosta Regional, GA

Change the Weather History Date:

Saturday, June 22, 2013

  Actual Average Record
Temperature  
Mean Temperature 83 °F 80 °F  
Max Temperature 92 °F 91 °F 102 °F (1998)
Min Temperature 74 °F 70 °F 64 °F (2005)
Cooling Degree Days 18 15  
Month to date cooling degree days 409 307  
Year to date cooling degree days 971 719  
Since 1 June cooling degree days 409 307  
Growing Degree Days 33 (Base 50)    
Moisture  
Dew Point 71 °F    
Average Humidity 68    
Maximum Humidity 87    
Minimum Humidity 49    
Precipitation  
Precipitation 0.57 in 0.20 in 1.37 in (2000)
Month to date precipitation 1.19 4.70  
Year to date precipitation 15.73 23.70  
Sea Level Pressure  
Sea Level Pressure 30.13 in    
Wind  
Wind Speed 3 mph (East)    
Max Wind Speed 13 mph    
Max Gust Speed 23 mph    
Visibility 9 miles    
Events Rain    
T = Trace of Precipitation, MM = Missing Value Source: NWS Daily Summary

Daily Weather History Graph

Daily Weather History Graph

Search for Another Location

Airport:

Trip Planner

Search our weather history database for the weather conditions in past years. The results will help you decide how hot, cold, wet, or windy it might be!

Date:

Astronomy

Jun. 22, 2013 Rise Set
Actual Time 6:30 AM EDT 8:39 PM EDT
Civil Twilight 6:03 AM EDT 9:07 PM EDT
Nautical Twilight 5:29 AM EDT 9:41 PM EDT
Astronomical Twilight 4:52 AM EDT 10:17 PM EDT
Moon 7:57 PM EDT 5:38 AM EDT
Length of Visible Light 15h 04m
Length of Day
14h 08m
Waxing Gibbous, 99% of the Moon is Illuminated
Jun 22
Waxing Gibbous
Jun 23
Full
Jun 30
Last Quarter
Jul 8
New
Jul 15
First Quarter

Hourly Weather History & Observations

Time (EDT) Temp. Heat Index Dew Point Humidity Pressure Visibility Wind Dir Wind Speed Gust Speed Precip Events Conditions
12:53 AM 75.9 °F - 70.0 °F 82% 30.14 in 10.0 mi Calm Calm - N/A   Clear
1:53 AM 75.9 °F - 70.0 °F 82% 30.14 in 10.0 mi Calm Calm - N/A   Clear
2:53 AM 75.0 °F - 70.0 °F 84% 30.13 in 10.0 mi Calm Calm - N/A   Scattered Clouds
3:53 AM 75.0 °F - 70.0 °F 84% 30.13 in 10.0 mi NNE 3.5 mph - N/A   Overcast
4:53 AM 75.0 °F - 71.1 °F 87% 30.12 in 9.0 mi ENE 3.5 mph - N/A   Overcast
5:53 AM 75.0 °F - 70.0 °F 84% 30.12 in 10.0 mi ENE 3.5 mph - N/A   Clear
6:53 AM 75.0 °F - 70.0 °F 84% 30.14 in 10.0 mi Calm Calm - N/A   Overcast
7:53 AM 77.0 °F - 71.1 °F 82% 30.15 in 10.0 mi Variable 3.5 mph - N/A   Clear
8:53 AM 80.1 °F 83.8 °F 72.0 °F 76% 30.16 in 10.0 mi East 5.8 mph - N/A   Scattered Clouds
9:17 AM 80.6 °F 84.6 °F 71.6 °F 74% 30.14 in 10.0 mi East 5.8 mph - N/A   Mostly Cloudy
9:53 AM 82.0 °F 86.3 °F 71.1 °F 69% 30.17 in 10.0 mi ESE 4.6 mph - N/A   Mostly Cloudy
10:34 AM 84.2 °F 88.4 °F 69.8 °F 62% 30.15 in 10.0 mi East 3.5 mph - N/A   Scattered Clouds
10:53 AM 84.9 °F 89.4 °F 70.0 °F 61% 30.17 in 10.0 mi South 3.5 mph - N/A   Mostly Cloudy
11:53 AM 84.9 °F 88.8 °F 69.1 °F 59% 30.17 in 10.0 mi Calm Calm - N/A   Mostly Cloudy
12:53 PM 90.0 °F 95.4 °F 70.0 °F 52% 30.15 in 10.0 mi SSW 5.8 mph - N/A   Mostly Cloudy
1:53 PM 91.9 °F 96.9 °F 69.1 °F 47% 30.14 in 10.0 mi SSE 5.8 mph - N/A   Mostly Cloudy
2:00 PM 91.4 °F 95.4 °F 68.0 °F 46% 30.12 in 10.0 mi Calm Calm - N/A   Mostly Cloudy
2:53 PM 89.1 °F 94.1 °F 70.0 °F 53% 30.12 in 10.0 mi Calm Calm - N/A   Mostly Cloudy
3:42 PM 78.8 °F - 71.6 °F 78% 30.11 in 1.5 mi NE 12.7 mph - 0.22 in Rain Heavy Rain
3:49 PM 77.0 °F - 71.6 °F 83% 30.11 in 3.0 mi NNE 10.4 mph - 0.47 in Rain Heavy Rain
3:53 PM 77.0 °F - 72.0 °F 84% 30.13 in 3.0 mi NNE 6.9 mph - 0.48 in Rain Rain
4:53 PM 79.0 °F - 73.0 °F 82% 30.12 in 10.0 mi NNE 3.5 mph - 0.07 in Rain Light Rain
5:53 PM 81.0 °F 85.2 °F 72.0 °F 74% 30.10 in 10.0 mi SE 6.9 mph - 0.02 in   Partly Cloudy
6:53 PM 79.0 °F - 73.0 °F 82% 30.12 in 10.0 mi Calm Calm - N/A   Overcast
7:53 PM 75.9 °F - 70.0 °F 82% 30.12 in 10.0 mi ESE 8.1 mph - N/A   Scattered Clouds
8:53 PM 75.0 °F - 70.0 °F 84% 30.13 in 10.0 mi Calm Calm - N/A   Overcast
9:53 PM 75.0 °F - 70.0 °F 84% 30.11 in 10.0 mi Calm Calm - N/A   Mostly Cloudy
10:53 PM 75.0 °F - 70.0 °F 84% 30.12 in 10.0 mi East 3.5 mph - N/A   Partly Cloudy
11:15 PM 75.2 °F - 69.8 °F 83% 30.12 in 10.0 mi East 4.6 mph - N/A   Scattered Clouds
11:25 PM 75.2 °F - 69.8 °F 83% 30.12 in 10.0 mi ESE 5.8 mph - N/A   Mostly Cloudy
11:53 PM 73.9 °F - 70.0 °F 87% 30.15 in 10.0 mi ESE 5.8 mph - N/A   Overcast